Skip Page Navigation
NASA JPL Caltech
NASA Logo - Jet Propulsion Laboratory + View the NASA Portal
+ Center for Near-Earth Object Studies
JPL Home Earth Solar System Stars & Galaxies Technology
JPL Solar System Dynamics
BODIES ORBITS EPHEMERIDES TOOLS PHYSICAL DATA DISCOVERY FAQ SITE MAP

Significant website upgrade scheduled for September 27. More details available here.

JPL Small-Body Database Browser
Search: [ help ]  
413743 (2006 BK250)
Classification: Main-belt Asteroid          SPK-ID: 2413743
Ephemeris | Orbit Diagram | Orbital Elements | Mission Design | Physical Parameters | Discovery Circumstances | Close-Approach Data ]

[ show orbit diagram ]
Orbital Elements at Epoch 2459396.5 (2021-Jul-01.0) TDB
Reference: JPL 18 (heliocentric ecliptic J2000)
 Element Value Uncertainty (1-sigma)   Units 
e .1489842290590602 7.9955e-08  
a 2.983599710967531 3.4336e-08 au
q 2.539090408208199 2.5219e-07 au
i 8.35797442592097 7.9123e-06 deg
node 330.29119318 3.9638e-05 deg
peri 161.9572544356344 4.5025e-05 deg
M 6.956764891514696 2.5126e-05 deg
tp 2459360.124071542263
(2021-May-25.62407154)
0.00013091 TDB
period 1882.388502270359
5.15
3.2494e-05
8.896e-08
d
yr
n .1912463870055528 3.3013e-09 deg/d
Q 3.428109013726864 3.9451e-08 au
  Orbit Determination Parameters
   # obs. used (total)      257  
   data-arc span      7326 days (20.06 yr)  
   first obs. used      2000-12-23  
   last obs. used      2021-01-13  
   planetary ephem.      DE441  
   SB-pert. ephem.      SB441-N16  
   condition code      0  
   norm. resid. RMS      .50942  
   source      ORB  
   producer      Otto Matic  
   solution date      2021-Apr-14 13:02:31  

Additional Information
 Earth MOID = 1.5554 au 
 Jupiter MOID = 1.61515 au 
 T_jup = 3.226 
[ show covariance matrix ]

Ephemeris | Orbit Diagram | Orbital Elements | Mission Design | Physical Parameters | Discovery Circumstances | Close-Approach Data ]

Physical Parameter Table
Parameter Symbol Value Units Sigma Reference Notes
absolute magnitude H 16.08   n/a MPCxxxxx  
diameter diameter 3.303 km 0.882 urn:nasa:pds:neowise_diameters_albedos::2.0[mainbelt] (http://adsabs.harvard.edu/abs/2011ApJ...741...68M)  
geometric albedo albedo 0.077   0.049 urn:nasa:pds:neowise_diameters_albedos::2.0[mainbelt] (http://adsabs.harvard.edu/abs/2011ApJ...741...68M)  

413743 (2006 BK250)          Discovered 2006-Jan-31 by Spacewatch at Kitt Peak
Reference: Last Updated: 2014-11-10

[ hide close-approach data ]
Close-Approach Data   ...sorted by Date/Time (TDB)
Date/Time (TDB) Time Uncertainty
(days_HH:MM)
Body Nominal Distance (au) Minimum Distance (au) Maximum Distance (au) V-relative (km/s) V-infinity (km/s) JD (TDB) Time Uncertainty (minutes) Semi-major axis (km) Semi-minor axis (km) range-LOV angle (deg) N-sigma BP Orbit Ref. Reference Modified
1925-Nov-10 13:31 00:05 Jupiter 1.75643636035463 1.7564333537622 1.7564393669826 2.65047194957253 2.46181297081027 2424465.063139539 5.26890832301405 473.119057482084 32.7076933768058 72.1971123148471 1142966.17245676 T 18 CATAB v2.0f-lin.ifort 2021-Apr-14 13:02:32 2021-Apr-14 13:02
1962-May-31 03:09 00:03 Jupiter 1.62214014143861 1.62213949977422 1.62214078311527 2.73344288494342 2.53522835970638 2437815.631545804 2.9398723576724 658.841121405934 14.7821208607491 87.3971947626036 1685842.13737579 T 18 CATAB v2.0f-lin.ifort 2021-Apr-14 13:02:32 2021-Apr-14 13:02
1998-Dec-25 14:33 00:01 Jupiter 1.78703200416753 1.78703100102586 1.78703300730909 2.77339037287235 2.59686897492499 2451173.105906619 1.12451011650527 198.841515564294 42.0528808799168 86.6171215500456 1741539.39621887 T 18 CATAB v2.0f-lin.ifort 2021-Apr-14 13:02:32 2021-Apr-14 13:02
2044-May-23 14:56 00:01 Jupiter 1.79202325347486 1.79202238834521 1.79202411860625 2.71290913402478 2.53269631267602 2467759.121891352 1.47928419058575 188.010822745568 20.4489832670275 77.2954766149917 1674909.26898021 T 18 CATAB v2.0f-lin.ifort 2021-Apr-14 13:02:32 2021-Apr-14 13:02
2080-Dec-13 09:36 00:03 Jupiter 1.61826162170426 1.61826096920921 1.61826227421192 2.7184046010331 2.51851016394291 2481111.899869345 3.35607247554301 599.322745819601 12.8532473850126 87.0030395858154 1625073.23625786 T 18 CATAB v2.0f-lin.ifort 2021-Apr-14 13:02:32 2021-Apr-14 13:02
2117-Jul-08 12:22 00:06 Jupiter 1.74991821322647 1.74991554161817 1.7499208849042 2.66175321938295 2.47322850355633 2494467.015356345 5.84725134273112 669.442752380182 51.6844954845753 79.914208106865 1399524.29806964 T 18 CATAB v2.0f-lin.ifort 2021-Apr-14 13:02:32 2021-Apr-14 13:02
2162-Dec-06 05:52 00:08 Jupiter 1.8293304597811 1.82932575410437 1.82933516552188 2.78977549816748 2.61854938010857 2511053.744136664 8.27400746693449 619.607261319684 30.6476341677283 68.4262079951718 1257363.17634944 T 18 CATAB v2.0f-lin.ifort 2021-Apr-14 13:02:32 2021-Apr-14 13:02
2199-Jun-30 20:15 00:10 Jupiter 1.62021943716952 1.62021821998393 1.62022065442345 2.71401087568141 2.51401866670254 2524409.343656672 9.65103618451242 736.384397301522 15.1301012900526 85.8633734666269 1223843.14136487 T 18 CATAB v2.0f-lin.ifort 2021-Apr-14 13:02:32 2021-Apr-14 13:02
Ephemeris | Orbit Diagram | Orbital Elements | Mission Design | Physical Parameters | Discovery Circumstances | Close-Approach Data ]
ABOUT SSD CREDITS/AWARDS PRIVACY/COPYRIGHT GLOSSARY LINKS
FirstGov 2021-Sep-26 04:59 UT
(server date/time)  
NASA Home Page
Site Manager:   Ryan S. Park
Webmaster  Alan B. Chamberlin